Location: Bailleul
(50.3375°N, 2.8513°E)
Time: 05:00:49
(UTC+00:00)

IGS 5A - Pass Details

Date: 19 April 2021
Orbit: 583 x 588 km, 97.6° (Epoch: 06 May)

Event Time Altitude Azimuth Distance (km) Brightness Sun altitude
Exits shadow 19:34:24 - 130° (SE) 2,004 5.5 -7.4°
Reaches altitude 10° 19:34:40 10° 128° (SE) 1,906 5.4 -7.4°
Maximum altitude 19:38:19 31° 66° (ENE) 1,039 4.4 -7.9°
Drops below altitude 10° 19:41:59 10° 5° (N) 1,918 6.4 -8.4°
Sets 19:44:19 0° 355° (N) 2,823 7.5 -8.7°
